CZ-6A DEB, 54264

Orbit data source: Space-Track

CZ-6A DEB, 54264 is space debris in SSO originally from a launch on Fri, 11 Nov 2022 UTC launched from the Taiyaun Space Center, China (TSC). Debris objects in space refer to the collection of defunct objects orbiting the Earth. Examples of debris include non-operational satellites, rocket bodies, and fragments generated from explosions, collisions, or faulty payload assembly.

Loading next visibility...
Identifier
54264, 2022-151F
Orbit
SSO
Country
Flag of CNCN / PRC
Related business
Manufacturer
SAST
Mission
Spacecraft
Bus & Motor
Unknown
Mass
Unknown
Launch date (UTC)
2022-11-11 (4 years ago)
Launch vehicle
Unknown
Launch site
Taiyaun Space Center, China (TSC)
Object type
Payload
Rocket body
Debris
Shape & HBR
Unknown shape, 0.1 m
Radar Cross Section
Medium (>0.1 m² and <1 m²)

Expand to show TLE details & history
Last TLE update: 2 days ago

TLE from 2 days ago
0 CZ-6A DEB
1 54264U 22151F   26171.04008449  .00000204  00000-0  27092-3 0  9997
2 54264  98.5745  14.2776 0351127 321.5097  36.1463 13.47492597177126
Epoch: 2026-06-20T00:57Z
TLE epoch observation values (Epoch: 2026-06-20T00:57:43.299Z)
Latitude
-0.0001°
Longitude
91.58678°
Altitude
876.115 km
Speed
7.517 km/s
True Right ascension
00h 57m 06s
True Declination
0° 00' 00"
Sunlit
Object was in daylight at epoch
Visualization orbit readout
Latitude
Unknown
Longitude
Unknown
Altitude
Unknown
Speed
Unknown
Apparent Right ascension
Unknown
Apparent Declination
Unknown
Sunlit
N/A
Visualization observer readout
Local Sidereal Time
21:26:59
Azimuth
Unknown
Elevation
Unknown
Doppler factor
Unknown
Orbital elements
Apogee altitude
1,340.574 km
Perigee altitude
816.912 km
Semi-major axis
7,456.88 km
Eccentricity
0.03511
Inclination
98.5745°
RAAN
14.2776°
Arg. of periapsis
321.5097°
True anomaly
38.60594°
Mean anomaly
36.1463°
Eccentric anomaly
37.36731°
Mean motion
3.3706 °/min
Orbital period
106.81 mins
BSTAR
0.00027092
Loading maneuver chart data...
Computing Atmospheric mass density...
Loading historical data...
Loading historical data...
Loading historical data...
Loading historical data...
Loading historical data...
Loading historical data...
Loading historical data...

Documentation

Showing up to 5 results
|